National Weather Service Raw Text Product

Displaying AFOS PIL: RWRIA Received: 2018-12-06 15:00 UTC


526 
ASUS43 KDMX 061506
RWRIA 

WEATHER ROUNDUP FOR IOWA
NATIONAL WEATHER SERVICE DES MOINES IA
900 AM CST THU DEC 06 2018

NOTE: "FAIR" INDICATES FEW OR NO CLOUDS BELOW 12,000 FEET WITH NO
SIGNIFICANT WEATHER AND/OR OBSTRUCTIONS TO VISIBILITY.

* - THESE STATIONS ARE NOT NWS STATIONS...THUS NOT UNDER NWS
QUALITY CONTROL.  THEY ALSO DO NOT REPORT WEATHER SUCH 
AS PRECIPITATION OR FOG.  

IAZ001>003-012>014-020>022-031>034-043>046-061600-
   NORTHWEST IOWA
  
CITY           SKY/WX    TMP DP  RH WIND       PRES   REMARKS
CARROLL *      PTSUNNY   16  14  93 N8        30.36S WCI   5          
CHEROKEE *     CLOUDY    20  16  84 N5        30.37R WCI  14          
DENISON *      CLOUDY    19  16  86 N8        30.38R WCI   9          
LE MARS *      SUNNY     14  12  92 CALM      30.39R                  
ORANGE CITY *  SUNNY     12  10  92 CALM      30.36R                  
SHELDON *      PTSUNNY   18  16  93 NW8       30.34R WCI   7          
SIOUX CITY     CLOUDY    18  14  84 NW8       30.40R WCI   8          
SPENCER        PTSUNNY   17  12  80 NW7       30.35R WCI   8          
STORM LAKE *   CLOUDY    18  16  93 NW10      30.34R WCI   6          
$$
 
IAZ055>058-069>071-079>083-090>094-061600-
   SOUTHWEST IOWA
  
CITY           SKY/WX    TMP DP  RH WIND       PRES   REMARKS
ATLANTIC *     SUNNY     18  14  86 N6        30.37R WCI   9          
AUDUBON *      MOSUNNY   18  12  79 CALM      30.36R                  
CLARINDA *     CLOUDY    21  18  86 N12       30.40R WCI   9          
COUNCIL BLFS * CLOUDY    19  18  93 N7        30.37R WCI  10          
CRESTON *      CLOUDY    21  16  79 N14       30.35R WCI   8          
HARLAN  *        N/A    N/A N/A N/A MISG        N/A                   
LAMONI         CLOUDY    23  16  74 N12       30.32R WCI  12          
RED OAK *      MOSUNNY   21  16  79 N9        30.38S WCI  11          
SHENANDOAH *   CLOUDY    21  18  86 N9        30.40R WCI  11          
$$
 
IAZ047>049-059>061-072>074-084-061600-
   CENTRAL IOWA
  
CITY           SKY/WX    TMP DP  RH WIND       PRES   REMARKS
AMES           SUNNY     21  13  71 N15       30.35R WCI   8          
ANKENY *       SUNNY     21  14  73 NW15      30.37R WCI   8          
BOONE *        SUNNY     19  14  79 N15       30.34R WCI   5          
CHARITON *     CLOUDY    23  18  80 N15G21    30.33R WCI  10          
DES MOINES     MOSUNNY   22  13  68 N15G24    30.36R WCI   9          
GRINNELL*      CLOUDY    21  16  80 N10       30.33R WCI  10          
KNOXVILLE *    CLOUDY    21  18  86 N15       30.33R WCI   8          
MARSHALLTOWN   SUNNY     20  14  77 NW13      30.33R WCI   7          
NEWTON *       PTSUNNY   21  14  73 N12       30.33R WCI   9          
PELLA *        CLOUDY    22  15  74 N13       30.35R WCI  10          
PERRY *        FAIR      20  15  82 N10       30.37R WCI   9          
$$
 
IAZ004>006-015-016-023>025-035-036-061600-
   NORTH CENTRAL IOWA
  
CITY           SKY/WX    TMP DP  RH WIND       PRES   REMARKS
ALGONA *       CLOUDY    18  14  86 NW5       30.32R WCI  11          
CLARION *      SUNNY     18  12  79 NW10      30.34R WCI   6          
ESTHERVILLE    PTSUNNY   18  13  80 NW20G25   30.33R WCI   2          
FORT DODGE *   MOSUNNY   20  13  74 NW5       30.35R WCI  13          
MASON CITY     SUNNY     14  10  84 NW9       30.33R WCI   2          
FOREST CITY *  PTSUNNY   19  14  79 NW9       30.32R WCI   9          
WEBSTER CITY * SUNNY     18  12  79 NW10      30.33R WCI   6          
IOWA FALLS *   FAIR      17  13  83 NW9       30.34R WCI   6          
$$

IAZ007>011-017>019-026>030-037>042-050>054-066-061600-
   NORTHEAST IOWA
  
CITY           SKY/WX    TMP DP  RH WIND       PRES   REMARKS
CEDAR RAPIDS   FAIR      22  14  71 N17G24    30.30R WCI   8          
CHARLES CITY * PTSUNNY   16  10  79 NW6       30.32R WCI   7          
CLINTON *      PTSUNNY   26  21  81 NW14      30.26  WCI  14          
DECORAH *      CLOUDY    16  12  86 N14G20    30.28R WCI   1          
DUBUQUE        FAIR      20  11  68 N13G23    30.26R WCI   7          
MONTICELLO *   FAIR      21  14  73 N12       30.30R WCI   9          
WATERLOO       FAIR      20  12  71 NW12      30.32R WCI   8          
$$
 
IAZ064-065-067-068-078-061600-
   EAST CENTRAL IOWA
  
CITY           SKY/WX    TMP DP  RH WIND       PRES   REMARKS
DAVENPORT      CLOUDY    26  19  74 N10       30.28R WCI  16          
IOWA CITY      FAIR      24  14  65 N12G23    30.32R WCI  13          
MT. PLEASANT * CLOUDY    28  23  80 NW9       30.30R WCI  20          
MUSCATINE *    CLOUDY    27  19  74 NW14      30.31R WCI  15          
QUAD CITIES    CLOUDY    29  22  75 NW7       30.27R WCI  22          
$$
 
IAZ062-063-075>077-085>089-095>099-061600-
   SOUTHEAST IOWA
  
CITY           SKY/WX    TMP DP  RH WIND       PRES   REMARKS
BURLINGTON     CLOUDY    28  20  71 NW10      30.28R WCI  19          
FAIRFIELD *    CLOUDY    25  16  68 NW14      30.30R WCI  13          
FORT MADISON * CLOUDY    28  25  86 N8        30.30R WCI  20          
KEOKUK *       CLOUDY    28  23  80 NW8       30.29R WCI  20          
OSKALOOSA *    FAIR      23  17  79 N15       30.33R WCI  10          
CENTERVILLE *  PTSUNNY   25  19  80 NW15G22   30.33R WCI  12          
OTTUMWA        CLOUDY    24  16  71 N18       30.32R WCI  10          
WASHINGTON *   CLOUDY    23  19  86 NW16      30.31R WCI  10          
$$

ABBREVIATIONS USED IN REMARKS
   TC - TEMPERATURES IN CELSIUS
  WCI - WIND CHILL INDEX
   HX - HEAT INDEX
  VSB - VISIBILITY  
$$

  

834 
ASUS43 KDMX 061501
RWRIA 

WEATHER ROUNDUP FOR IOWA
NATIONAL WEATHER SERVICE DES MOINES IA
900 AM CST THU DEC 06 2018

NOTE: "FAIR" INDICATES FEW OR NO CLOUDS BELOW 12,000 FEET WITH NO
SIGNIFICANT WEATHER AND/OR OBSTRUCTIONS TO VISIBILITY.

* - THESE STATIONS ARE NOT NWS STATIONS...THUS NOT UNDER NWS
QUALITY CONTROL.  THEY ALSO DO NOT REPORT WEATHER SUCH 
AS PRECIPITATION OR FOG.  

IAZ001>003-012>014-020>022-031>034-043>046-061600-
   NORTHWEST IOWA
  
CITY           SKY/WX    TMP DP  RH WIND       PRES   REMARKS
CARROLL *      PTSUNNY   16  14  93 N8        30.36S WCI   5          
CHEROKEE *     CLOUDY    20  16  84 N5        30.37R WCI  14          
DENISON *      CLOUDY    19  16  86 N8        30.38R WCI   9          
LE MARS *      SUNNY     14  12  92 CALM      30.39R                  
ORANGE CITY *  SUNNY     12  10  92 CALM      30.36R                  
SHELDON *      PTSUNNY   18  16  93 NW8       30.34R WCI   7          
SIOUX CITY     CLOUDY    18  14  84 NW8       30.40R WCI   8          
SPENCER        MOSUNNY   16  11  80 NW7       30.35R WCI   6          
STORM LAKE *   CLOUDY    18  16  93 NW10      30.34R WCI   6          
$$
 
IAZ055>058-069>071-079>083-090>094-061600-
   SOUTHWEST IOWA
  
CITY           SKY/WX    TMP DP  RH WIND       PRES   REMARKS
ATLANTIC *     SUNNY     18  14  86 N6        30.37R WCI   9          
AUDUBON *      MOSUNNY   18  12  79 CALM      30.36R                  
CLARINDA *     CLOUDY    21  18  86 N12       30.40R WCI   9          
COUNCIL BLFS * CLOUDY    19  18  93 N7        30.37R WCI  10          
CRESTON *      CLOUDY    21  16  79 N14       30.35R WCI   8          
HARLAN  *        N/A    N/A N/A N/A MISG        N/A                   
LAMONI         CLOUDY    23  16  74 N12       30.32R WCI  12          
RED OAK *      MOSUNNY   21  16  79 N9        30.38S WCI  11          
SHENANDOAH *   CLOUDY    21  18  86 N9        30.40R WCI  11          
$$
 
IAZ047>049-059>061-072>074-084-061600-
   CENTRAL IOWA
  
CITY           SKY/WX    TMP DP  RH WIND       PRES   REMARKS
AMES           SUNNY     21  13  71 N15       30.35R WCI   8          
ANKENY *       SUNNY     21  14  73 NW15      30.37R WCI   8          
BOONE *        SUNNY     19  14  79 N15       30.34R WCI   5          
CHARITON *     CLOUDY    23  18  80 N15G21    30.33R WCI  10          
DES MOINES     MOSUNNY   22  13  68 N15G24    30.36R WCI   9          
GRINNELL*      CLOUDY    21  16  80 N10       30.33R WCI  10          
KNOXVILLE *    CLOUDY    21  18  86 N15       30.33R WCI   8          
MARSHALLTOWN   SUNNY     20  14  77 NW13      30.33R WCI   7          
NEWTON *       PTSUNNY   21  14  73 N12       30.33R WCI   9          
PELLA *        CLOUDY    22  15  74 N13       30.35R WCI  10          
PERRY *        FAIR      20  15  82 N10       30.37R WCI   9          
$$
 
IAZ004>006-015-016-023>025-035-036-061600-
   NORTH CENTRAL IOWA
  
CITY           SKY/WX    TMP DP  RH WIND       PRES   REMARKS
ALGONA *       CLOUDY    18  14  86 NW5       30.32R WCI  11          
CLARION *      SUNNY     18  12  79 NW10      30.34R WCI   6          
ESTHERVILLE    PTSUNNY   18  13  80 NW20G25   30.33R WCI   2          
FORT DODGE *   MOSUNNY   20  13  74 NW5       30.35R WCI  13          
MASON CITY     SUNNY     14  10  84 NW9       30.33R WCI   2          
FOREST CITY *  PTSUNNY   19  14  79 NW9       30.32R WCI   9          
IOWA FALLS *   FAIR      17  13  83 NW9       30.34R WCI   6          
$$

IAZ007>011-017>019-026>030-037>042-050>054-066-061600-
   NORTHEAST IOWA
  
CITY           SKY/WX    TMP DP  RH WIND       PRES   REMARKS
CEDAR RAPIDS   FAIR      22  14  71 N17G24    30.30R WCI   8          
CHARLES CITY * PTSUNNY   16  10  79 NW6       30.32R WCI   7          
CLINTON *      PTSUNNY   26  21  81 NW14      30.26  WCI  14          
DECORAH *      CLOUDY    16  12  86 N14G20    30.28R WCI   1          
DUBUQUE        FAIR      20  11  68 N13G23    30.26R WCI   7          
MONTICELLO *   FAIR      21  14  73 N12       30.30R WCI   9          
WATERLOO       FAIR      20  12  71 NW12      30.32R WCI   8          
$$
 
IAZ064-065-067-068-078-061600-
   EAST CENTRAL IOWA
  
CITY           SKY/WX    TMP DP  RH WIND       PRES   REMARKS
DAVENPORT      CLOUDY    26  19  74 N10       30.28R WCI  16          
IOWA CITY      FAIR      24  14  65 N12G23    30.32R WCI  13          
MT. PLEASANT * CLOUDY    28  23  80 NW9       30.30R WCI  20          
MUSCATINE *    CLOUDY    27  19  74 NW14      30.31R WCI  15          
QUAD CITIES    CLOUDY    29  22  75 NW7       30.27R WCI  22          
$$
 
IAZ062-063-075>077-085>089-095>099-061600-
   SOUTHEAST IOWA
  
CITY           SKY/WX    TMP DP  RH WIND       PRES   REMARKS
BURLINGTON     CLOUDY    28  20  71 NW10      30.28R WCI  19          
FAIRFIELD *    CLOUDY    25  16  68 NW14      30.30R WCI  13          
FORT MADISON * CLOUDY    28  25  86 N8        30.30R WCI  20          
KEOKUK *       CLOUDY    28  23  80 NW8       30.29R WCI  20          
OSKALOOSA *    FAIR      23  17  79 N15       30.33R WCI  10          
OTTUMWA        CLOUDY    24  16  71 N18       30.32R WCI  10          
WASHINGTON *   CLOUDY    23  19  86 NW16      30.31R WCI  10          
$$

ABBREVIATIONS USED IN REMARKS
   TC - TEMPERATURES IN CELSIUS
  WCI - WIND CHILL INDEX
   HX - HEAT INDEX
  VSB - VISIBILITY  
$$